x

Ilm3 - 27 Miles Se Of Wrightsville Beach, Nc (41037) Weather Station

6:08 - Thu 19th Jan 2017 All times are EST. -5 hours from GMT.

  • Wind
    7mph, 11mph gusts
  • Sea Temp 70°f
  • Luft Temp 59°f
  • Sea Pressure 1016.6mb
  • Ilm3 - 27 Miles Se Of Wrightsville Beach, Nc
  • Ilm3 - 27 Miles Se Of Wrightsville Beach, Nc

More Historic Weather Station data

Upgrade to MSW Pro to gain access to the past 30 days of data for over 8000 Wavebouys and Weather Stations around the globe.

Join Pro

Comparision Forecast

View Surf forecast
   
Do 01/19 6:08 7 11 mph 1016.6mb 70f 59f
5:08 7 13 mph 1016.6mb 71f 59f
4:08 7 11 mph 1016.3mb 71f 60f
3:08 7 16 mph 1016.4mb 71f 59f
2:08 9 13 mph 1016.8mb 71f 58f
1:08 11 16 mph 1017.3mb 71f 58f
12:08 11 18 mph 1017.8mb 71f 58f
11:08 13 18 mph 1018.6mb 70f 58f
10:08 13 18 mph 1019.3mb 69f 57f
9:08 13 22 mph 1018.7mb 68f 56f
8:08 16 22 mph 1018.4mb 68f 56f
7:08 13 20 mph 1017.7mb 68f 57f
6:08 11 18 mph 1017.5mb 68f 58f
5:08 9 13 mph 1016.9mb 68f 59f
4:08 9 16 mph 1016.5mb 68f 59f
3:08 11 18 mph 1016.5mb 68f 60f
2:08 13 20 mph 1016.4mb 68f 60f
1:08 13 20 mph 1016.5mb 68f 60f
12:08 13 22 mph 1016.7mb 68f 60f
Mi 01/18 11:08 16 22 mph 1016.7mb 68f 60f
10:08 18 27 mph 1016.5mb 68f 60f
9:08 18 27 mph 1016.4mb 68f 60f
8:08 18 27 mph 1016.1mb 68f 62f
7:08 16 22 mph 1015.7mb 68f 67f
6:08 11 20 mph 1014.6mb 68f 67f
5:08 7 11 mph 1013.6mb 68f 65f
4:08 13 18 mph 1012.9mb 68f 66f
3:08 18 25 mph 1012.6mb 68f 65f
2:08 20 27 mph 1012.5mb 68f 64f
1:08 22 31 mph 1012.4mb 69f 64f
12:08 22 31 mph 1013.8mb 68f 65f
11:08 25 34 mph 1014.3mb 69f 66f
10:08 27 38 mph 1014.9mb 69f 66f
9:08 25 36 mph 1015mb 69f 67f
8:08 22 31 mph 1015.6mb 69f 65f
7:08 22 31 mph 1016.2mb 69f 65f
6:08 25 34 mph 1016.1mb 69f 66f
5:08 25 34 mph 1016.2mb 69f 66f
4:08 25 31 mph 1016mb 69f 67f
2:08 22 31 mph 1017.3mb 69f 67f
1:08 22 29 mph 1017.8mb 69f 68f
12:08 22 29 mph 1018.5mb 69f 68f
Di 01/17 11:08 16 22 mph 1019.8mb 69f 67f
10:08 16 22 mph 1020.1mb 69f 69f
9:08 18 25 mph 1020.8mb 69f 69f
8:08 13 18 mph 1021mb 69f 68f
7:08 13 20 mph 1021.2mb 69f 68f
6:08 13 20 mph 1021.7mb 69f 67f
5:08 16 22 mph 1021.6mb 69f 67f
4:08 13 18 mph 1021.2mb 70f 67f
3:08 13 20 mph 1021.5mb 70f 68f
2:08 13 18 mph 1021.8mb 69f 68f
1:08 13 20 mph 1022.2mb 69f 69f
12:08 13 18 mph 1023mb 69f 70f
11:08 4 7 mph 1024mb 69f 70f
10:08 4 7 mph 1024.6mb 69f 68f
9:08 4 9 mph 1024.4mb 69f 66f
8:08 4 9 mph 1024.4mb 68f 65f
7:08 4 9 mph 1024mb 68f 65f
6:08 9 11 mph 1023.7mb 68f 64f
5:08 7 11 mph 1023.8mb 68f 63f
4:08 7 11 mph 1024.1mb 68f 62f
3:08 7 11 mph 1024.5mb 68f 62f
2:08 9 13 mph 1024.5mb 68f 61f
1:08 7 11 mph 1025mb 68f 61f
12:08 7 11 mph 1025.8mb 68f 60f
Mo 01/16 11:08 9 16 mph 1026.3mb 68f 60f
10:08 13 20 mph 1026.3mb 68f 59f
9:08 13 20 mph 1026.8mb 68f 59f
8:08 13 18 mph 1026.7mb 68f 60f
7:08 16 20 mph 1027mb 68f 60f
6:08 16 20 mph 1027.6mb 68f 60f
5:08 16 22 mph 1027.2mb 69f 59f
4:08 16 22 mph 1027.2mb 69f 58f
3:08 16 22 mph 1027mb 69f 58f
2:08 16 22 mph 1027mb 69f 58f
1:08 16 25 mph 1027.3mb 69f 57f
12:08 18 25 mph 1028.2mb 70f 57f
11:08 18 25 mph 1028.7mb 70f 58f
10:08 18 25 mph 1029.2mb 70f 58f
9:08 18 27 mph 1028.3mb 70f 57f
8:08 20 27 mph 1027.7mb 70f 56f
7:08 20 27 mph 1027.3mb 70f 57f
6:08 20 27 mph 1027.1mb 70f 56f
5:08 20 27 mph 1026.7mb 70f 56f
4:08 18 27 mph 1026.3mb 70f 56f
3:08 18 27 mph 1026.3mb 70f 57f
2:08 18 25 mph 1026.2mb 70f 58f
1:08 18 27 mph 1026mb 70f 58f
12:08 18 25 mph 1026.2mb 71f 58f